Time,TemperatureF,DewpointF,PressureIn,WindDirection,WindDirectionDegrees,WindSpeedMPH,WindSpeedGustMPH,Humidity,HourlyPrecipIn,Conditions,Clouds,dailyrainin,SoftwareType,DateUTC
2013-03-07 00:01:00,29.3,23.6,30.31,North,11,0.0,0.0,79,0.00,,,0.00,Wunderground v.1.15,2013-03-07 06:01:00,
2013-03-07 00:10:00,29.1,23.4,30.31,North,11,0.0,0.0,79,0.00,,,0.00,Wunderground v.1.15,2013-03-07 06:10:00,
2013-03-07 00:15:00,29.0,23.3,30.30,North,11,0.0,0.0,79,0.00,,,0.00,Wunderground v.1.15,2013-03-07 06:15:00,
2013-03-07 00:20:00,29.0,23.3,30.30,North,11,0.0,0.0,79,0.00,,,0.00,Wunderground v.1.15,2013-03-07 06:20:00,
2013-03-07 00:25:00,29.0,23.3,30.30,North,11,0.0,0.0,79,0.00,,,0.00,Wunderground v.1.15,2013-03-07 06:25:00,
2013-03-07 00:30:00,29.0,23.0,30.30,North,11,0.0,0.0,78,0.00,,,0.00,Wunderground v.1.15,2013-03-07 06:30:00,
2013-03-07 00:40:00,29.5,22.9,30.30,North,11,0.0,0.0,76,0.00,,,0.00,Wunderground v.1.15,2013-03-07 06:40:00,
2013-03-07 00:45:00,29.8,23.2,30.30,North,11,0.0,0.0,76,0.00,,,0.00,Wunderground v.1.15,2013-03-07 06:45:00,
2013-03-07 00:50:00,30.1,23.1,30.30,North,11,0.0,0.0,75,0.00,,,0.00,Wunderground v.1.15,2013-03-07 06:50:00,
2013-03-07 00:55:00,30.4,23.4,30.30,North,11,0.0,0.0,75,0.00,,,0.00,Wunderground v.1.15,2013-03-07 06:55:00,
2013-03-07 01:00:00,30.4,23.4,30.31,North,11,0.0,0.0,75,0.00,,,0.00,Wunderground v.1.15,2013-03-07 07:00:00,
2013-03-07 01:05:00,30.3,23.3,30.31,North,11,0.0,0.0,75,0.00,,,0.00,Wunderground v.1.15,2013-03-07 07:05:00,
2013-03-07 01:11:00,30.3,23.3,30.31,North,11,0.0,0.0,75,0.00,,,0.00,Wunderground v.1.15,2013-03-07 07:11:00,
2013-03-07 01:20:00,30.3,23.6,30.31,North,11,0.0,0.0,76,0.00,,,0.00,Wunderground v.1.15,2013-03-07 07:20:00,
2013-03-07 01:25:00,30.4,23.7,30.31,North,11,0.0,0.0,76,0.00,,,0.00,Wunderground v.1.15,2013-03-07 07:25:00,
2013-03-07 01:30:00,30.7,23.7,30.31,North,11,0.0,0.0,75,0.00,,,0.00,Wunderground v.1.15,2013-03-07 07:30:00,
2013-03-07 01:35:00,31.0,23.7,30.31,North,11,0.0,0.0,74,0.00,,,0.00,Wunderground v.1.15,2013-03-07 07:35:00,
2013-03-07 01:45:00,31.6,23.9,30.31,North,11,0.0,0.0,73,0.00,,,0.00,Wunderground v.1.15,2013-03-07 07:45:00,
2013-03-07 01:50:00,31.9,24.2,30.31,North,11,0.0,0.0,73,0.00,,,0.00,Wunderground v.1.15,2013-03-07 07:50:00,
2013-03-07 01:55:00,32.2,24.2,30.31,North,11,0.0,0.0,72,0.00,,,0.00,Wunderground v.1.15,2013-03-07 07:55:00,
2013-03-07 02:00:00,32.4,24.0,30.32,NNE,22,0.0,0.0,71,0.00,,,0.00,Wunderground v.1.15,2013-03-07 08:00:00,
2013-03-07 02:05:00,32.7,24.3,30.32,NNE,22,0.0,0.0,71,0.00,,,0.00,Wunderground v.1.15,2013-03-07 08:05:00,
2013-03-07 02:10:00,32.8,24.1,30.32,NNE,22,0.0,0.0,70,0.00,,,0.00,Wunderground v.1.15,2013-03-07 08:10:00,
2013-03-07 02:15:00,32.9,24.2,30.31,NNE,22,0.0,0.0,70,0.00,,,0.00,Wunderground v.1.15,2013-03-07 08:15:00,
2013-03-07 02:25:00,33.2,23.4,30.31,SE,137,1.0,3.0,67,0.00,,,0.00,Wunderground v.1.15,2013-03-07 08:25:00,
2013-03-07 02:30:00,33.5,23.4,30.31,SE,136,1.0,3.0,66,0.00,,,0.00,Wunderground v.1.15,2013-03-07 08:30:00,
2013-03-07 02:35:00,33.5,23.4,30.31,SE,140,1.0,3.0,66,0.00,,,0.00,Wunderground v.1.15,2013-03-07 08:35:00,
2013-03-07 02:40:00,33.5,23.4,30.31,SE,140,2.0,3.0,66,0.00,,,0.00,Wunderground v.1.15,2013-03-07 08:40:00,
2013-03-07 02:45:00,33.5,23.4,30.30,SSE,147,1.0,1.0,66,0.00,,,0.00,Wunderground v.1.15,2013-03-07 08:45:00,
2013-03-07 02:50:00,33.5,23.4,30.30,SSE,149,1.0,1.0,66,0.00,,,0.00,Wunderground v.1.15,2013-03-07 08:50:00,
2013-03-07 02:55:00,33.5,23.4,30.30,SE,144,1.0,1.0,66,0.00,,,0.00,Wunderground v.1.15,2013-03-07 08:55:00,
2013-03-07 03:05:00,33.7,23.5,30.30,SE,142,1.0,1.0,66,0.00,,,0.00,Wunderground v.1.15,2013-03-07 09:05:00,
2013-03-07 03:10:00,33.5,23.7,30.30,SE,142,1.0,1.0,67,0.00,,,0.00,Wunderground v.1.15,2013-03-07 09:10:00,
2013-03-07 03:15:00,33.5,23.7,30.30,SE,142,0.0,1.0,67,0.00,,,0.00,Wunderground v.1.15,2013-03-07 09:15:00,
2013-03-07 03:20:00,33.7,23.5,30.30,SE,142,0.0,3.0,66,0.00,,,0.00,Wunderground v.1.15,2013-03-07 09:20:00,
2013-03-07 03:26:00,33.7,23.9,30.30,SE,127,1.0,3.0,67,0.00,,,0.00,Wunderground v.1.15,2013-03-07 09:26:00,
2013-03-07 03:35:00,33.7,23.9,30.29,SE,135,1.0,1.0,67,0.00,,,0.00,Wunderground v.1.15,2013-03-07 09:35:00,
2013-03-07 03:40:00,33.8,23.6,30.29,ESE,122,1.0,2.0,66,0.00,,,0.00,Wunderground v.1.15,2013-03-07 09:40:00,
2013-03-07 03:45:00,33.8,24.0,30.29,SSE,167,2.0,4.0,67,0.00,,,0.00,Wunderground v.1.15,2013-03-07 09:45:00,
2013-03-07 03:50:00,34.0,23.8,30.29,SE,136,2.0,2.0,66,0.00,,,0.00,Wunderground v.1.15,2013-03-07 09:50:00,
2013-03-07 03:55:00,34.0,23.8,30.29,SE,146,2.0,3.0,66,0.00,,,0.00,Wunderground v.1.15,2013-03-07 09:55:00,
2013-03-07 04:05:00,34.1,23.6,30.30,SSE,160,2.0,2.0,65,0.00,,,0.00,Wunderground v.1.15,2013-03-07 10:05:00,
2013-03-07 04:10:00,34.3,23.7,30.30,SSE,149,2.0,5.0,65,0.00,,,0.00,Wunderground v.1.15,2013-03-07 10:10:00,
2013-03-07 04:15:00,34.3,23.4,30.31,SE,137,2.0,5.0,64,0.00,,,0.00,Wunderground v.1.15,2013-03-07 10:15:00,
2013-03-07 04:20:00,34.3,23.0,30.31,SSE,158,3.0,5.0,63,0.00,,,0.00,Wunderground v.1.15,2013-03-07 10:20:00,
2013-03-07 04:26:00,34.3,23.0,30.31,SE,141,3.0,9.0,63,0.00,,,0.00,Wunderground v.1.15,2013-03-07 10:26:00,
2013-03-07 04:35:00,34.1,22.8,30.31,SSE,160,3.0,4.0,63,0.00,,,0.00,Wunderground v.1.15,2013-03-07 10:35:00,
2013-03-07 04:40:00,34.1,22.8,30.31,SE,139,3.0,6.0,63,0.00,,,0.00,Wunderground v.1.15,2013-03-07 10:40:00,
2013-03-07 04:45:00,33.8,22.9,30.31,ESE,123,2.0,6.0,64,0.00,,,0.00,Wunderground v.1.15,2013-03-07 10:45:00,
2013-03-07 04:55:00,33.4,22.9,30.31,SSE,163,1.0,1.0,65,0.00,,,0.00,Wunderground v.1.15,2013-03-07 10:55:00,
2013-03-07 05:00:00,33.2,22.7,30.31,SSE,163,1.0,1.0,65,0.00,,,0.00,Wunderground v.1.15,2013-03-07 11:00:00,
2013-03-07 05:06:00,33.1,22.6,30.31,ESE,111,2.0,5.0,65,0.00,,,0.00,Wunderground v.1.15,2013-03-07 11:06:00,
2013-03-07 05:15:00,33.2,22.7,30.31,SE,134,2.0,4.0,65,0.00,,,0.00,Wunderground v.1.15,2013-03-07 11:15:00,
2013-03-07 05:20:00,33.1,22.6,30.31,SSE,154,1.0,1.0,65,0.00,,,0.00,Wunderground v.1.15,2013-03-07 11:20:00,
2013-03-07 05:25:00,33.1,23.0,30.31,SE,136,1.0,5.0,66,0.00,,,0.00,Wunderground v.1.15,2013-03-07 11:25:00,
2013-03-07 05:30:00,32.9,22.8,30.30,ESE,118,2.0,2.0,66,0.00,,,0.00,Wunderground v.1.15,2013-03-07 11:30:00,
2013-03-07 05:40:00,32.8,23.0,30.30,ESE,119,2.0,2.0,67,0.00,,,0.00,Wunderground v.1.15,2013-03-07 11:40:00,
2013-03-07 05:45:00,32.8,23.0,30.30,ESE,113,2.0,2.0,67,0.00,,,0.00,Wunderground v.1.15,2013-03-07 11:45:00,
2013-03-07 05:50:00,32.7,22.9,30.30,SSE,155,2.0,2.0,67,0.00,,,0.00,Wunderground v.1.15,2013-03-07 11:50:00,
2013-03-07 05:55:00,32.5,23.1,30.30,SSE,155,1.0,1.0,68,0.00,,,0.00,Wunderground v.1.15,2013-03-07 11:55:00,
2013-03-07 06:00:00,32.4,23.0,30.30,SE,146,1.0,2.0,68,0.00,,,0.00,Wunderground v.1.15,2013-03-07 12:00:00,
2013-03-07 06:06:00,32.1,22.7,30.30,SE,132,1.0,2.0,68,0.00,,,0.00,Wunderground v.1.15,2013-03-07 12:06:00,
2013-03-07 06:15:00,31.9,22.9,30.31,SE,138,1.0,2.0,69,0.00,,,0.00,Wunderground v.1.15,2013-03-07 12:15:00,
2013-03-07 06:20:00,31.8,22.8,30.31,SE,142,1.0,1.0,69,0.00,,,0.00,Wunderground v.1.15,2013-03-07 12:20:00,
2013-03-07 06:25:00,31.6,22.6,30.31,SE,142,0.0,1.0,69,0.00,,,0.00,Wunderground v.1.15,2013-03-07 12:25:00,
2013-03-07 06:30:00,31.3,22.6,30.33,SE,142,0.0,0.0,70,0.00,,,0.00,Wunderground v.1.15,2013-03-07 12:30:00,
2013-03-07 06:40:00,31.0,22.7,30.33,SE,141,0.0,1.0,71,0.00,,,0.00,Wunderground v.1.15,2013-03-07 12:40:00,
2013-03-07 06:45:00,31.0,23.0,30.32,SE,141,1.0,1.0,72,0.00,,,0.00,Wunderground v.1.15,2013-03-07 12:45:00,
2013-03-07 06:50:00,31.0,23.0,30.32,SSE,159,1.0,1.0,72,0.00,,,0.00,Wunderground v.1.15,2013-03-07 12:50:00,
2013-03-07 06:55:00,31.2,23.2,30.32,SSE,159,1.0,1.0,72,0.00,,,0.00,Wunderground v.1.15,2013-03-07 12:55:00,
2013-03-07 07:00:00,31.2,23.2,30.33,ESE,117,1.0,3.0,72,0.00,,,0.00,Wunderground v.1.15,2013-03-07 13:00:00,
2013-03-07 07:06:00,31.3,23.3,30.33,SE,137,2.0,5.0,72,0.00,,,0.00,Wunderground v.1.15,2013-03-07 13:06:00,
2013-03-07 07:15:00,31.8,23.5,30.34,SE,142,2.0,2.0,71,0.00,,,0.00,Wunderground v.1.15,2013-03-07 13:15:00,
2013-03-07 07:20:00,31.9,23.6,30.34,SE,146,2.0,2.0,71,0.00,,,0.00,Wunderground v.1.15,2013-03-07 13:20:00,
2013-03-07 07:25:00,32.1,23.8,30.34,ESE,122,2.0,2.0,71,0.00,,,0.00,Wunderground v.1.15,2013-03-07 13:25:00,
2013-03-07 07:30:00,32.4,23.7,30.35,SE,134,2.0,4.0,70,0.00,,,0.00,Wunderground v.1.15,2013-03-07 13:30:00,
2013-03-07 07:36:00,32.7,24.0,30.35,East,101,2.0,2.0,70,0.00,,,0.00,Wunderground v.1.15,2013-03-07 13:36:00,
2013-03-07 07:51:00,33.7,24.3,30.34,SE,134,4.0,4.0,68,0.00,,,0.00,Wunderground v.1.15,2013-03-07 13:51:00,
2013-03-07 08:00:00,34.4,24.6,30.35,SE,144,4.0,4.0,67,0.00,,,0.00,Wunderground v.1.15,2013-03-07 14:00:00,
2013-03-07 08:05:00,34.7,24.5,30.35,SE,134,4.0,5.0,66,0.00,,,0.00,Wunderground v.1.15,2013-03-07 14:05:00,
2013-03-07 08:11:00,35.0,24.4,30.35,South,170,4.0,6.0,65,0.00,,,0.00,Wunderground v.1.15,2013-03-07 14:11:00,
2013-03-07 08:20:00,35.9,25.3,30.35,SSE,147,5.0,6.0,65,0.00,,,0.00,Wunderground v.1.15,2013-03-07 14:20:00,
2013-03-07 08:25:00,36.3,24.9,30.35,SSE,150,5.0,5.0,63,0.00,,,0.00,Wunderground v.1.15,2013-03-07 14:25:00,
2013-03-07 08:30:00,36.9,25.1,30.35,SE,142,5.0,5.0,62,0.00,,,0.00,Wunderground v.1.15,2013-03-07 14:30:00,
2013-03-07 08:41:00,37.8,25.9,30.35,SSE,154,6.0,12.0,62,0.00,,,0.00,Wunderground v.1.15,2013-03-07 14:41:00,
2013-03-07 08:50:00,38.8,25.7,30.35,SE,132,5.0,6.0,59,0.00,,,0.00,Wunderground v.1.15,2013-03-07 14:50:00,
2013-03-07 08:55:00,39.2,25.6,30.35,SE,140,5.0,7.0,58,0.00,,,0.00,Wunderground v.1.15,2013-03-07 14:55:00,
2013-03-07 09:05:00,40.2,26.6,30.34,SSE,157,5.0,6.0,58,0.00,,,0.00,Wunderground v.1.15,2013-03-07 15:05:00,
2013-03-07 09:10:00,40.6,26.1,30.34,ESE,117,6.0,9.0,56,0.00,,,0.00,Wunderground v.1.15,2013-03-07 15:10:00,
2013-03-07 09:15:00,40.8,26.3,30.34,SSE,154,6.0,9.0,56,0.00,,,0.00,Wunderground v.1.15,2013-03-07 15:15:00,
2013-03-07 09:21:00,41.2,26.2,30.34,SSW,210,7.0,7.0,55,0.00,,,0.00,Wunderground v.1.15,2013-03-07 15:21:00,
2013-03-07 09:30:00,41.9,26.9,30.34,SSE,164,6.0,13.0,55,0.00,,,0.00,Wunderground v.1.15,2013-03-07 15:30:00,
2013-03-07 09:35:00,42.6,27.1,30.34,SSE,166,5.0,5.0,54,0.00,,,0.00,Wunderground v.1.15,2013-03-07 15:35:00,
2013-03-07 09:40:00,43.3,26.8,30.34,SE,144,4.0,5.0,52,0.00,,,0.00,Wunderground v.1.15,2013-03-07 15:40:00,
2013-03-07 09:46:00,43.5,26.6,30.34,SSE,157,4.0,4.0,51,0.00,,,0.00,Wunderground v.1.15,2013-03-07 15:46:00,
2013-03-07 09:55:00,44.8,28.2,30.34,SE,142,4.0,8.0,52,0.00,,,0.00,Wunderground v.1.15,2013-03-07 15:55:00,
2013-03-07 10:00:00,45.2,27.2,30.33,ESE,118,4.0,4.0,49,0.00,,,0.00,Wunderground v.1.15,2013-03-07 16:00:00,
2013-03-07 10:05:00,46.0,27.9,30.33,SE,129,4.0,5.0,49,0.00,,,0.00,Wunderground v.1.15,2013-03-07 16:05:00,
2013-03-07 10:11:00,46.5,27.3,30.33,SE,145,3.0,4.0,47,0.00,,,0.00,Wunderground v.1.15,2013-03-07 16:11:00,
2013-03-07 10:20:00,46.5,27.3,30.33,SSE,152,4.0,4.0,47,0.00,,,0.00,Wunderground v.1.15,2013-03-07 16:20:00,
2013-03-07 10:25:00,47.1,27.4,30.33,SE,138,4.0,4.0,46,0.00,,,0.00,Wunderground v.1.15,2013-03-07 16:25:00,
2013-03-07 10:30:00,47.3,27.0,30.33,East,101,5.0,11.0,45,0.00,,,0.00,Wunderground v.1.15,2013-03-07 16:30:00,
2013-03-07 10:40:00,47.7,27.4,30.33,SSE,156,5.0,9.0,45,0.00,,,0.00,Wunderground v.1.15,2013-03-07 16:40:00,
2013-03-07 10:45:00,48.0,28.2,30.32,ESE,108,5.0,11.0,46,0.00,,,0.00,Wunderground v.1.15,2013-03-07 16:45:00,
2013-03-07 10:50:00,48.6,27.6,30.32,SSW,207,5.0,11.0,44,0.00,,,0.00,Wunderground v.1.15,2013-03-07 16:50:00,
2013-03-07 10:55:00,48.8,28.4,30.32,SSE,155,5.0,6.0,45,0.00,,,0.00,Wunderground v.1.15,2013-03-07 16:55:00,
2013-03-07 11:01:00,49.2,27.1,30.32,SW,223,5.0,5.0,42,0.00,,,0.00,Wunderground v.1.15,2013-03-07 17:01:00,
2013-03-07 11:10:00,50.1,27.3,30.32,SE,126,5.0,9.0,41,0.00,,,0.00,Wunderground v.1.15,2013-03-07 17:10:00,
2013-03-07 11:15:00,50.1,27.9,30.32,SSE,164,5.0,5.0,42,0.00,,,0.00,Wunderground v.1.15,2013-03-07 17:15:00,
2013-03-07 11:20:00,50.4,26.3,30.32,SSE,150,5.0,5.0,39,0.00,,,0.00,Wunderground v.1.15,2013-03-07 17:20:00,
2013-03-07 11:25:00,50.7,27.8,30.32,SSE,161,5.0,5.0,41,0.00,,,0.00,Wunderground v.1.15,2013-03-07 17:25:00,
2013-03-07 11:30:00,51.0,28.1,30.32,SSE,150,5.0,5.0,41,0.00,,,0.00,Wunderground v.1.15,2013-03-07 17:30:00,
2013-03-07 11:35:00,51.7,26.9,30.32,ESE,123,4.0,5.0,38,0.00,,,0.00,Wunderground v.1.15,2013-03-07 17:35:00,
2013-03-07 11:41:00,51.6,28.6,30.32,South,180,4.0,5.0,41,0.00,,,0.00,Wunderground v.1.15,2013-03-07 17:41:00,
2013-03-07 11:50:00,52.5,27.6,30.31,SSE,157,4.0,6.0,38,0.00,,,0.00,Wunderground v.1.15,2013-03-07 17:50:00,
2013-03-07 11:55:00,52.5,30.0,30.31,SE,138,4.0,6.0,42,0.00,,,0.00,Wunderground v.1.15,2013-03-07 17:55:00,
2013-03-07 12:00:00,52.9,28.0,30.30,ESE,115,3.0,3.0,38,0.00,,,0.00,Wunderground v.1.15,2013-03-07 18:00:00,
2013-03-07 12:05:00,53.2,27.6,30.30,SW,218,4.0,6.0,37,0.00,,,0.00,Wunderground v.1.15,2013-03-07 18:05:00,
2013-03-07 12:10:00,53.6,28.6,30.30,SSE,147,4.0,4.0,38,0.00,,,0.00,Wunderground v.1.15,2013-03-07 18:10:00,
2013-03-07 12:15:00,53.9,25.4,30.29,SE,128,4.0,5.0,33,0.00,,,0.00,Wunderground v.1.15,2013-03-07 18:15:00,
2013-03-07 12:21:00,53.9,28.2,30.29,SSE,161,5.0,8.0,37,0.00,,,0.00,Wunderground v.1.15,2013-03-07 18:21:00,
2013-03-07 12:30:00,54.7,26.8,30.28,SW,233,4.0,8.0,34,0.00,,,0.00,Wunderground v.1.15,2013-03-07 18:30:00,
2013-03-07 12:35:00,54.7,26.1,30.28,SE,134,4.0,4.0,33,0.00,,,0.00,Wunderground v.1.15,2013-03-07 18:35:00,
2013-03-07 12:40:00,54.8,25.5,30.28,South,188,5.0,6.0,32,0.00,,,0.00,Wunderground v.1.15,2013-03-07 18:40:00,
2013-03-07 12:45:00,55.1,28.6,30.28,SSE,159,3.0,5.0,36,0.00,,,0.00,Wunderground v.1.15,2013-03-07 18:45:00,
2013-03-07 12:50:00,55.4,24.4,30.28,SSW,201,4.0,5.0,30,0.00,,,0.00,Wunderground v.1.15,2013-03-07 18:50:00,
2013-03-07 12:56:00,56.0,25.0,30.28,SSE,164,4.0,4.0,30,0.00,,,0.00,Wunderground v.1.15,2013-03-07 18:56:00,
2013-03-07 13:05:00,55.7,24.7,30.26,East,87,4.0,4.0,30,0.00,,,0.00,Wunderground v.1.15,2013-03-07 19:05:00,
2013-03-07 13:10:00,56.0,23.3,30.26,South,180,4.0,4.0,28,0.00,,,0.00,Wunderground v.1.15,2013-03-07 19:10:00,
2013-03-07 13:15:00,56.6,27.0,30.25,South,173,3.0,4.0,32,0.00,,,0.00,Wunderground v.1.15,2013-03-07 19:15:00,
2013-03-07 13:20:00,57.3,24.4,30.25,ESE,121,4.0,4.0,28,0.00,,,0.00,Wunderground v.1.15,2013-03-07 19:20:00,
2013-03-07 13:25:00,57.3,29.1,30.25,SSE,160,4.0,5.0,34,0.00,,,0.00,Wunderground v.1.15,2013-03-07 19:25:00,
2013-03-07 13:31:00,57.3,27.7,30.24,South,181,3.0,3.0,32,0.00,,,0.00,Wunderground v.1.15,2013-03-07 19:31:00,
2013-03-07 13:40:00,57.0,25.0,30.24,East,83,3.0,3.0,29,0.00,,,0.00,Wunderground v.1.15,2013-03-07 19:40:00,
2013-03-07 13:45:00,57.3,29.1,30.24,South,174,3.0,3.0,34,0.00,,,0.00,Wunderground v.1.15,2013-03-07 19:45:00,
2013-03-07 14:01:00,58.7,22.9,30.23,SSE,163,3.0,6.0,25,0.00,,,0.00,Wunderground v.1.15,2013-03-07 20:01:00,
2013-03-07 14:10:00,58.9,24.0,30.23,SE,143,3.0,6.0,26,0.00,,,0.00,Wunderground v.1.15,2013-03-07 20:10:00,
2013-03-07 14:15:00,58.4,20.7,30.23,SSE,164,3.0,6.0,23,0.00,,,0.00,Wunderground v.1.15,2013-03-07 20:15:00,
2013-03-07 14:20:00,58.3,21.6,30.23,SSW,192,4.0,6.0,24,0.00,,,0.00,Wunderground v.1.15,2013-03-07 20:20:00,
2013-03-07 14:30:00,58.9,23.1,30.22,WSW,243,3.0,5.0,25,0.00,,,0.00,Wunderground v.1.15,2013-03-07 20:30:00,
2013-03-07 14:35:00,58.7,23.9,30.22,SE,126,3.0,5.0,26,0.00,,,0.00,Wunderground v.1.15,2013-03-07 20:35:00,
2013-03-07 14:40:00,58.9,24.0,30.22,SSW,206,4.0,5.0,26,0.00,,,0.00,Wunderground v.1.15,2013-03-07 20:40:00,
2013-03-07 14:50:00,58.6,21.9,30.21,SSW,208,5.0,5.0,24,0.00,,,0.00,Wunderground v.1.15,2013-03-07 20:50:00,
2013-03-07 14:55:00,58.7,22.9,30.21,SSE,148,4.0,4.0,25,0.00,,,0.00,Wunderground v.1.15,2013-03-07 20:55:00,
2013-03-07 15:00:00,59.2,23.4,30.21,South,188,4.0,4.0,25,0.00,,,0.00,Wunderground v.1.15,2013-03-07 21:00:00,
2013-03-07 15:05:00,59.5,24.5,30.21,South,183,3.0,5.0,26,0.00,,,0.00,Wunderground v.1.15,2013-03-07 21:05:00,
2013-03-07 15:11:00,59.3,26.2,30.21,SSE,160,3.0,6.0,28,0.00,,,0.00,Wunderground v.1.15,2013-03-07 21:11:00,
2013-03-07 15:20:00,59.3,23.4,30.21,SSE,150,4.0,6.0,25,0.00,,,0.00,Wunderground v.1.15,2013-03-07 21:20:00,
2013-03-07 15:25:00,59.2,24.3,30.21,ESE,119,4.0,4.0,26,0.00,,,0.00,Wunderground v.1.15,2013-03-07 21:25:00,
2013-03-07 15:30:00,59.0,25.0,30.20,SSE,156,4.0,4.0,27,0.00,,,0.00,Wunderground v.1.15,2013-03-07 21:30:00,
2013-03-07 15:36:00,59.2,24.3,30.20,SSE,161,5.0,5.0,26,0.00,,,0.00,Wunderground v.1.15,2013-03-07 21:36:00,
2013-03-07 15:45:00,59.2,24.3,30.20,South,184,5.0,8.0,26,0.00,,,0.00,Wunderground v.1.15,2013-03-07 21:45:00,
2013-03-07 15:50:00,59.2,25.2,30.20,SSW,198,4.0,6.0,27,0.00,,,0.00,Wunderground v.1.15,2013-03-07 21:50:00,
2013-03-07 15:55:00,58.9,25.8,30.20,SE,138,4.0,6.0,28,0.00,,,0.00,Wunderground v.1.15,2013-03-07 21:55:00,
2013-03-07 16:00:00,58.6,24.7,30.20,SE,144,5.0,5.0,27,0.00,,,0.00,Wunderground v.1.15,2013-03-07 22:00:00,
2013-03-07 16:10:00,58.4,24.5,30.20,SE,138,5.0,9.0,27,0.00,,,0.00,Wunderground v.1.15,2013-03-07 22:10:00,
2013-03-07 16:15:00,58.3,25.3,30.20,SSE,165,7.0,7.0,28,0.00,,,0.00,Wunderground v.1.15,2013-03-07 22:15:00,
2013-03-07 16:20:00,58.1,25.1,30.20,East,97,6.0,7.0,28,0.00,,,0.00,Wunderground v.1.15,2013-03-07 22:20:00,
2013-03-07 16:25:00,58.1,25.1,30.20,SE,142,4.0,4.0,28,0.00,,,0.00,Wunderground v.1.15,2013-03-07 22:25:00,
2013-03-07 16:35:00,57.8,24.9,30.20,SE,137,5.0,5.0,28,0.00,,,0.00,Wunderground v.1.15,2013-03-07 22:35:00,
2013-03-07 16:40:00,57.8,24.9,30.20,SE,129,4.0,5.0,28,0.00,,,0.00,Wunderground v.1.15,2013-03-07 22:40:00,
2013-03-07 16:45:00,57.6,24.7,30.19,SE,128,4.0,8.0,28,0.00,,,0.00,Wunderground v.1.15,2013-03-07 22:45:00,
2013-03-07 16:55:00,57.3,25.3,30.19,ESE,105,4.0,10.0,29,0.00,,,0.00,Wunderground v.1.15,2013-03-07 22:55:00,
2013-03-07 17:00:00,57.0,25.8,30.19,SE,140,4.0,5.0,30,0.00,,,0.00,Wunderground v.1.15,2013-03-07 23:00:00,
2013-03-07 17:05:00,56.7,25.6,30.19,SE,141,4.0,7.0,30,0.00,,,0.00,Wunderground v.1.15,2013-03-07 23:05:00,
2013-03-07 17:10:00,56.5,23.7,30.19,SE,138,4.0,4.0,28,0.00,,,0.00,Wunderground v.1.15,2013-03-07 23:10:00,
2013-03-07 17:15:00,56.2,25.9,30.19,SSE,153,3.0,4.0,31,0.00,,,0.00,Wunderground v.1.15,2013-03-07 23:15:00,
2013-03-07 17:25:00,55.7,25.5,30.19,SE,138,2.0,2.0,31,0.00,,,0.00,Wunderground v.1.15,2013-03-07 23:25:00,
2013-03-07 17:30:00,55.6,25.4,30.19,SE,134,5.0,5.0,31,0.00,,,0.00,Wunderground v.1.15,2013-03-07 23:30:00,
2013-03-07 17:35:00,55.3,25.1,30.19,SE,124,5.0,5.0,31,0.00,,,0.00,Wunderground v.1.15,2013-03-07 23:35:00,
2013-03-07 17:40:00,55.1,25.7,30.19,SSE,155,4.0,5.0,32,0.00,,,0.00,Wunderground v.1.15,2013-03-07 23:40:00,
2013-03-07 17:46:00,54.7,26.8,30.19,SE,146,3.0,3.0,34,0.00,,,0.00,Wunderground v.1.15,2013-03-07 23:46:00,
2013-03-07 17:55:00,54.1,25.6,30.19,SE,130,3.0,3.0,33,0.00,,,0.00,Wunderground v.1.15,2013-03-07 23:55:00,
2013-03-07 18:00:00,53.8,25.3,30.19,SSE,148,3.0,5.0,33,0.00,,,0.00,Wunderground v.1.15,2013-03-08 00:00:00,
2013-03-07 18:05:00,53.6,25.9,30.19,SE,131,3.0,5.0,34,0.00,,,0.00,Wunderground v.1.15,2013-03-08 00:05:00,
2013-03-07 18:10:00,53.5,26.5,30.19,SE,130,3.0,3.0,35,0.00,,,0.00,Wunderground v.1.15,2013-03-08 00:10:00,
2013-03-07 18:20:00,52.9,26.0,30.19,ESE,123,3.0,4.0,35,0.00,,,0.00,Wunderground v.1.15,2013-03-08 00:20:00,
2013-03-07 18:25:00,52.6,26.4,30.19,SE,125,3.0,3.0,36,0.00,,,0.00,Wunderground v.1.15,2013-03-08 00:25:00,
2013-03-07 18:30:00,52.3,26.1,30.19,SE,133,3.0,3.0,36,0.00,,,0.00,Wunderground v.1.15,2013-03-08 00:30:00,
2013-03-07 18:35:00,52.0,26.5,30.19,ESE,121,2.0,2.0,37,0.00,,,0.00,Wunderground v.1.15,2013-03-08 00:35:00,
2013-03-07 18:41:00,51.6,26.1,30.19,East,101,2.0,4.0,37,0.00,,,0.00,Wunderground v.1.15,2013-03-08 00:41:00,
2013-03-07 18:50:00,51.3,25.9,30.19,SE,135,3.0,4.0,37,0.00,,,0.00,Wunderground v.1.15,2013-03-08 00:50:00,
2013-03-07 18:55:00,51.3,26.5,30.19,SSE,150,3.0,3.0,38,0.00,,,0.00,Wunderground v.1.15,2013-03-08 00:55:00,
2013-03-07 19:00:00,51.0,26.3,30.19,SE,144,3.0,3.0,38,0.00,,,0.00,Wunderground v.1.15,2013-03-08 01:00:00,
2013-03-07 19:11:00,50.1,26.7,30.19,SE,134,2.0,2.0,40,0.00,,,0.00,Wunderground v.1.15,2013-03-08 01:11:00,
2013-03-07 19:20:00,49.4,27.2,30.19,SE,131,2.0,2.0,42,0.00,,,0.00,Wunderground v.1.15,2013-03-08 01:20:00,
2013-03-07 19:25:00,49.4,27.8,30.19,SSE,157,2.0,5.0,43,0.00,,,0.00,Wunderground v.1.15,2013-03-08 01:25:00,
2013-03-07 19:30:00,49.5,27.9,30.19,SSE,151,3.0,5.0,43,0.00,,,0.00,Wunderground v.1.15,2013-03-08 01:30:00,
2013-03-07 19:35:00,49.4,27.8,30.19,SE,132,3.0,5.0,43,0.00,,,0.00,Wunderground v.1.15,2013-03-08 01:35:00,
2013-03-07 19:40:00,49.4,28.4,30.19,SE,130,2.0,5.0,44,0.00,,,0.00,Wunderground v.1.15,2013-03-08 01:40:00,
2013-03-07 19:50:00,48.8,28.4,30.20,SE,128,2.0,2.0,45,0.00,,,0.00,Wunderground v.1.15,2013-03-08 01:50:00,
2013-03-07 19:55:00,48.6,28.2,30.20,South,169,2.0,3.0,45,0.00,,,0.00,Wunderground v.1.15,2013-03-08 01:55:00,
2013-03-07 20:00:00,48.5,28.6,30.21,SSE,150,2.0,2.0,46,0.00,,,0.00,Wunderground v.1.15,2013-03-08 02:00:00,
2013-03-07 20:10:00,48.3,28.5,30.21,SE,138,3.0,3.0,46,0.00,,,0.00,Wunderground v.1.15,2013-03-08 02:10:00,
2013-03-07 20:15:00,48.3,28.5,30.20,SE,134,2.0,2.0,46,0.00,,,0.00,Wunderground v.1.15,2013-03-08 02:15:00,
2013-03-07 20:20:00,48.0,28.7,30.20,SE,133,2.0,2.0,47,0.00,,,0.00,Wunderground v.1.15,2013-03-08 02:20:00,
2013-03-07 20:30:00,47.6,28.3,30.21,SE,130,2.0,4.0,47,0.00,,,0.00,Wunderground v.1.15,2013-03-08 02:30:00,
2013-03-07 20:35:00,47.7,28.4,30.21,SSE,150,3.0,3.0,47,0.00,,,0.00,Wunderground v.1.15,2013-03-08 02:35:00,
2013-03-07 20:45:00,47.6,28.9,30.21,SE,128,3.0,4.0,48,0.00,,,0.00,Wunderground v.1.15,2013-03-08 02:45:00,
2013-03-07 20:50:00,47.6,28.9,30.21,SE,130,3.0,5.0,48,0.00,,,0.00,Wunderground v.1.15,2013-03-08 02:50:00,
2013-03-07 20:55:00,47.3,29.1,30.21,ESE,118,2.0,5.0,49,0.00,,,0.00,Wunderground v.1.15,2013-03-08 02:55:00,
2013-03-07 21:00:00,47.0,28.8,30.22,SSE,160,2.0,3.0,49,0.00,,,0.00,Wunderground v.1.15,2013-03-08 03:00:00,
2013-03-07 21:05:00,46.5,29.3,30.22,SE,140,2.0,3.0,51,0.00,,,0.00,Wunderground v.1.15,2013-03-08 03:05:00,
2013-03-07 21:11:00,46.4,29.2,30.22,SE,126,2.0,2.0,51,0.00,,,0.00,Wunderground v.1.15,2013-03-08 03:11:00,
2013-03-07 21:20:00,46.1,29.0,30.22,SE,128,2.0,4.0,51,0.00,,,0.00,Wunderground v.1.15,2013-03-08 03:20:00,
2013-03-07 21:25:00,46.1,29.0,30.22,SE,136,2.0,2.0,51,0.00,,,0.00,Wunderground v.1.15,2013-03-08 03:25:00,
2013-03-07 21:30:00,45.8,29.2,30.22,SE,145,2.0,3.0,52,0.00,,,0.00,Wunderground v.1.15,2013-03-08 03:30:00,
2013-03-07 21:35:00,45.7,29.1,30.22,ESE,117,1.0,3.0,52,0.00,,,0.00,Wunderground v.1.15,2013-03-08 03:35:00,
2013-03-07 21:45:00,45.5,29.3,30.23,ESE,108,2.0,2.0,53,0.00,,,0.00,Wunderground v.1.15,2013-03-08 03:45:00,
2013-03-07 21:51:00,45.1,29.4,30.23,SE,138,2.0,4.0,54,0.00,,,0.00,Wunderground v.1.15,2013-03-08 03:51:00,
2013-03-07 22:00:00,44.9,29.7,30.24,SSE,156,2.0,2.0,55,0.00,,,0.00,Wunderground v.1.15,2013-03-08 04:00:00,
2013-03-07 22:05:00,44.5,29.3,30.24,SSE,156,1.0,2.0,55,0.00,,,0.00,Wunderground v.1.15,2013-03-08 04:05:00,
2013-03-07 22:10:00,44.2,29.9,30.24,SE,140,1.0,6.0,57,0.00,,,0.00,Wunderground v.1.15,2013-03-08 04:10:00,
2013-03-07 22:15:00,43.8,29.5,30.24,SE,132,1.0,6.0,57,0.00,,,0.00,Wunderground v.1.15,2013-03-08 04:15:00,
2013-03-07 22:20:00,43.5,29.7,30.24,SE,125,1.0,1.0,58,0.00,,,0.00,Wunderground v.1.15,2013-03-08 04:20:00,
2013-03-07 22:26:00,43.5,29.7,30.24,SE,135,1.0,1.0,58,0.00,,,0.00,Wunderground v.1.15,2013-03-08 04:26:00,
2013-03-07 22:35:00,43.5,29.7,30.24,SE,129,2.0,6.0,58,0.00,,,0.00,Wunderground v.1.15,2013-03-08 04:35:00,
2013-03-07 22:40:00,43.8,30.0,30.24,SSE,152,3.0,6.0,58,0.00,,,0.00,Wunderground v.1.15,2013-03-08 04:40:00,
2013-03-07 22:45:00,43.6,29.8,30.24,SE,128,4.0,4.0,58,0.00,,,0.00,Wunderground v.1.15,2013-03-08 04:45:00,
2013-03-07 22:51:00,43.6,29.8,30.24,SE,127,4.0,5.0,58,0.00,,,0.00,Wunderground v.1.15,2013-03-08 04:51:00,
2013-03-07 23:00:00,43.3,29.9,30.24,East,100,4.0,6.0,59,0.00,,,0.00,Wunderground v.1.15,2013-03-08 05:00:00,
2013-03-07 23:05:00,43.2,30.2,30.24,SSE,152,3.0,6.0,60,0.00,,,0.00,Wunderground v.1.15,2013-03-08 05:05:00,
2013-03-07 23:10:00,43.2,30.2,30.24,SSE,157,4.0,4.0,60,0.00,,,0.00,Wunderground v.1.15,2013-03-08 05:10:00,
2013-03-07 23:15:00,43.2,30.2,30.24,SSE,158,5.0,6.0,60,0.00,,,0.00,Wunderground v.1.15,2013-03-08 05:15:00,
2013-03-07 23:20:00,43.1,30.6,30.24,SE,146,5.0,5.0,61,0.00,,,0.00,Wunderground v.1.15,2013-03-08 05:20:00,
2013-03-07 23:26:00,42.9,30.4,30.24,SE,146,4.0,5.0,61,0.00,,,0.00,Wunderground v.1.15,2013-03-08 05:26:00,
2013-03-07 23:35:00,42.6,30.5,30.25,SE,130,4.0,5.0,62,0.00,,,0.00,Wunderground v.1.15,2013-03-08 05:35:00,
2013-03-07 23:40:00,42.5,29.6,30.25,SSE,157,4.0,5.0,60,0.00,,,0.00,Wunderground v.1.15,2013-03-08 05:40:00,
2013-03-07 23:45:00,42.3,30.6,30.25,SSE,149,3.0,5.0,63,0.00,,,0.00,Wunderground v.1.15,2013-03-08 05:45:00,
2013-03-07 23:51:00,42.1,30.8,30.25,SE,126,3.0,5.0,64,0.00,,,0.00,Wunderground v.1.15,2013-03-08 05:51:00,